Simultaneous Nadir Overpasses (SNOs) Predictions

Prediction of SNOs between GOES-16 and NOAA-19 Satellite Orbit:

Table of predicted SNOs for the next 14.0 days since TLE Epoch: 1/17/2020
Index Date Time (GOES-16) GOES-16 Lat,Lon NOAA-19 Lat,Lon Distance(km) Time Diff (sec)
1 01/19/2020 10:42:48 0.07, -75.20 0.63, -77.66 280.75 80
2 01/20/2020 10:31:08 0.07, -75.20 -0.04, -74.82 44.96 80
3 01/21/2020 10:16:48 0.08, -75.21 -0.66, -71.96 370.61 80
4 01/23/2020 22:38:00 -0.09, -75.22 -0.51, -76.97 200.56 80
5 01/24/2020 22:29:00 -0.09, -75.23 0.15, -74.12 125.76 80
6 01/25/2020 22:17:21 -0.10, -75.24 0.81, -71.27 452.24 80
7 01/27/2020 10:47:15 0.10, -75.27 0.97, -79.07 434.01 80
8 01/28/2020 10:38:15 0.10, -75.28 0.29, -76.22 107.07 80
9 01/29/2020 10:23:55 0.10, -75.30 -0.32, -73.37 220.13 80




NCC Satellite Simultaneous Nadir Overpasses (SNOs) Prediction Service
